Regional Weather Roundup
Issued by NWS

Home | Current Version | Previous Version | Graphics & Text | Print | Product List | Glossary On
Versions: 1 2 3 4 5 6 7 8 9 10 11 12 13 14 15 16 17 18 19 20 21 22 23 24 25 26 27 28 29 30 31 32 33 34 35 36 37 38 39 40 41 42 43 44 45 46 47 48 49 50
000
ASUS43 KMPX 010610
RWRMN
WEATHER ROUNDUP FOR MINNESOTA
NATIONAL WEATHER SERVICE TWIN CITIES/CHANHASSEN MN
100 AM CDT SAT NOV 01 2014


NOTE: "FAIR" INDICATES FEW OR NO CLOUDS BELOW 12,000 FEET WITH NO
SIGNIFICANT WEATHER AND/OR OBSTRUCTIONS TO VISIBILITY. N/A MEANS
CURRENT SKY AND/OR WEATHER CONDITIONS ARE NOT AVAILABLE.

MNZ060>063-068>070-010700-
   Twin Cities Metro

CITY           SKY/WX    TMP DP  RH WIND       PRES   REMARKS
TWIN CITIES    CLEAR     27  18  69 CALM      30.48S
6HR MIN TEMP:  27; 6HR MAX TEMP:  34;

ST PAUL        CLEAR     26  19  74 CALM      30.50S
CRYSTAL        CLEAR     22  15  75 CALM      30.46F
BLAINE         CLEAR     23  18  80 CALM      30.46F
LAKEVILLE      CLEAR     18  16  93 CALM      30.47S
EDEN PRAIRIE   CLEAR     26  18  71 CALM      30.46F
6HR MIN TEMP:  26; 6HR MAX TEMP:  35;

SOUTH ST PAUL  CLEAR     25  19  77 CALM      30.48S
LAKE ELMO      FAIR      19  18  93 CALM      30.48F
$$
MNZ001>005-007-008-013>017-022>024-027-028-010700-
   Northwest Minnesota

CITY           SKY/WX    TMP DP  RH WIND       PRES   REMARKS
BEMIDJI        PTCLDY    27  15  60 S8        30.36F WCI  19
HALLOCK        CLOUDY    34  19  55 S18G25    30.27F WCI  23
ROSEAU         MOCLDY    30  21  69 S8        30.33S WCI  23
WARROAD        PTCLDY    28  21  74 CALM      30.34F
THIEF RVR FALL MOCLDY    30  19  64 S10       30.32F WCI  21
CROOKSTON      MOCLDY    32  21  64 S16       30.33F WCI  21
FOSSTON        CLOUDY    28  18  64 S12       30.35F WCI  18
DETROIT LAKES  MOCLDY    32  21  64 S12       30.37F WCI  23
MOORHEAD       MOCLDY    32  23  69 S17       30.35F WCI  21
PARK RAPIDS    PTCLDY    26  15  63 S9        30.38F WCI  17
MAHNOMEN       FAIR      30  20  65 S12       30.35F WCI  21
$$
MNZ006-009>011-018-025>026-010700-
   North Central Minnesota

CITY           SKY/WX    TMP DP  RH WIND       PRES   REMARKS
BAUDETTE       CLEAR     25  17  72 S6        30.36F WCI  18
FLAG ISLAND    CLEAR     37  27  65 S17       30.32F
INTL FALLS     CLEAR     19  14  81 S5        30.38F WCI  12
6HR MIN TEMP:  17; 6HR MAX TEMP:  25;

WASKISH        CLEAR     19  18  93 CALM      30.37F
BIG FORK       CLEAR     19  16  86 S3        30.39F
LONGVILLE      CLEAR     21  19  93 S5        30.40S WCI  15
GRAND RAPIDS   CLEAR     21  14  73 S5        30.40F WCI  15
CRANE LAKE     CLEAR     16  16 100 CALM      30.43S
ORR            CLEAR     23  16  74 CALM      30.37F
COOK           CLEAR     18  16  93 CALM      30.41S
WALKER         FAIR      30  13  50 S5        30.38S WCI  25
$$
MNZ012-019>021-037-010700-
   Northeast Minnesota

CITY           SKY/WX    TMP DP  RH WIND       PRES   REMARKS
DULUTH         CLEAR     25  15  66 SW3       30.42S
6HR MIN TEMP:  23; 6HR MAX TEMP:  33;

ELY            CLEAR     16  14  93 CALM      30.41S
HIBBING        CLEAR     15  10  80 CALM      30.41F
EVELETH        CLEAR     18  16  93 CALM      30.42F
DULUTH HARBOR  CLEAR     28  21  74 CALM      30.47S
TWO HARBORS    CLEAR     21  18  86 CALM      30.42S
SILVER BAY     CLEAR     19  18  93 CALM      30.42F
GRAND MARAIS     N/A     23  19  85 NW6       30.46S WCI  16
G MARAIS ARPRT CLEAR     12   9  85 CALM      30.40S
$$
MNZ029>031-032-039>041-046>048-054>057-064-010700-
   West Central Minnesota

CITY           SKY/WX    TMP DP  RH WIND       PRES   REMARKS
FERGUS FALLS   PTCLDY    28  18  64 S13       30.40F WCI  18
WHEATON        CLEAR     25  18  74 SE12      30.39F WCI  14
MORRIS         CLEAR     25  19  80 SE9       30.39S WCI  15
ALEXANDRIA     CLEAR     26  18  71 S8        30.41S WCI  18
ELBOW LAKE     FAIR      26  19  72 SE13      30.39S WCI  15
WADENA         PTCLDY    23  16  74 SE5       30.39F WCI  17
GLENWOOD       CLEAR     25  18  74 SE7       30.42S WCI  17
APPLETON       CLEAR     27  19  74 SE9       30.41S WCI  17
BENSON         CLEAR     27  18  69 S9        30.42S WCI  17
ORTONVILLE     CLEAR     23  18  80 SE7       30.39F WCI  15
MADISON        CLEAR     25  19  80 S6        30.41S WCI  18
WILLMAR        FAIR      25  16  68 SE8       30.44F WCI  16
$$
MNZ033>034-036-042>043-049>051-058-059-010700-
   Central Minnesota

CITY           SKY/WX    TMP DP  RH WIND       PRES   REMARKS
ST CLOUD       CLEAR     21  16  81 SE5       30.45F WCI  15
6HR MIN TEMP:  21; 6HR MAX TEMP:  33;

SAUK CENTRE    FAIR      21  16  79 SE6       30.43S WCI  14
PAYNESVILLE    CLEAR     27  18  69 E8        30.44F WCI  19
AITKIN         CLEAR     21  16  79 CALM      30.41S
PINE RIVER     CLEAR     19  18  93 CALM      30.43S
BRAINERD       CLEAR     23  16  74 S7        30.42F WCI  15
STAPLES        PTCLDY    25  16  68 S3        30.40F
LONG PRAIRIE   FAIR      23  18  80 SE5       30.42S WCI  17
LITTLE FALLS   CLEAR     27  16  63 SE3       30.43F
LITCHFIELD     CLEAR     28  18  64 SE7       30.45F WCI  21
BUFFALO        CLEAR     21  14  75 CALM      30.47F
MAPLE LAKE     CLEAR     26  20  80 CALM      30.47S
$$
MNZ037-044-045-052-053-010700-
   East Central Minnesota

CITY           SKY/WX    TMP DP  RH WIND       PRES   REMARKS
PRINCETON      CLEAR     18  16  93 CALM      30.46S
MORA           CLEAR     19  18  93 CALM      30.48R
CAMBRIDGE      CLEAR     21  14  73 CALM      30.45S
RUSH CITY      CLEAR     18  15  86 CALM      30.47F
MOOSE LAKE     CLEAR     19  18  93 CALM      30.44S
HINCKLEY       FAIR      21  18  86 CALM      30.46S
CLOQUET        CLEAR     27  14  59 SW6       30.43S WCI  20
MCGREGOR       CLEAR     23  18  80 CALM      30.43S
$$
MNZ071>073-080-081-089-090-097-098-010700-
   Southwest Minnesota

CITY           SKY/WX    TMP DP  RH WIND       PRES   REMARKS
MONTEVIDEO     CLEAR     25  18  74 S8        30.43F WCI  16
GRANITE FALLS  PTCLDY    26  16  68 SE9       30.45F WCI  16
CANBY          CLEAR     27  19  72 S8        30.42S WCI  19
MARSHALL       CLEAR     25  12  58 S9        30.41S WCI  15
REDWOOD FALLS  PTCLDY    21  13  71 SE9       30.44F WCI  11
OLIVIA         PTCLDY    25  16  68 SE6       30.43F WCI  18
PIPESTONE      MOCLDY    27  16  63 S9        30.39S WCI  17
WINDOM         PTCLDY    25  16  68 SE5       30.44S WCI  19
WORTHINGTON    PTCLDY    27  16  63 SE9       30.43F WCI  17
JACKSON        PTCLDY    27  18  69 SE7       30.44S WCI  19
TRACY          PTCLDY    27  17  66 S9        30.43S WCI  17
SLAYTON        PTCLDY    20  15  79 SE6       30.42S WCI  13
$$
MNZ065>067-074>077-082>085-091>093-010700-
   South Central Minnesota

CITY           SKY/WX    TMP DP  RH WIND       PRES   REMARKS
MANKATO        PTCLDY    27  18  69 SE7       30.47F WCI  19
NEW ULM        PTCLDY    25  16  68 SE5       30.46F WCI  19
ST JAMES       PTCLDY    23  16  74 SE7       30.47S WCI  15
FAIRMONT       PTCLDY    21  10  63 SE6       30.46S WCI  14
GLENCOE        CLEAR     23  15  73 SE3       30.46F
FARIBAULT      PTCLDY    18  16  93 CALM      30.47S
OWATONNA       PTCLDY    23  18  80 CALM      30.46F
WASECA         PTCLDY    19  12  73 CALM      30.49F
ALBERT LEA     PTCLDY    21  18  86 CALM      30.47S
$$
MNZ078>079-086>088-094>096-010700-
   Southeast Minnesota

CITY           SKY/WX    TMP DP  RH WIND       PRES   REMARKS
ROCHESTER      CLEAR     27  17  66 E5        30.46F WCI  22
6HR MIN TEMP:  26; 6HR MAX TEMP:  29;

RED WING       CLEAR     21  18  86 CALM      30.48S
STANTON        CLEAR     18  15  86 SW3       30.46F
DODGE CENTER   PTCLDY    23  18  80 CALM      30.46F
WINONA         CLEAR     28  23  80 CALM      30.50S
AUSTIN         CLEAR     23  19  86 CALM      30.47F
PRESTON        CLEAR     26  18  71 CALM      30.48S
$$
ABBREVIATIONS USED IN REMARKS
   TC - TEMPERATURES IN CELSIUS
  WCI - WIND CHILL INDEX
   HX - HEAT INDEX
  VSB - VISIBILITY
$$



USA.gov is the U.S. government's official web portal to all federal, state and local government web resources and services.